Regional Weather Roundup
Issued by NWS

Home | Current Version | Previous Version | Graphics & Text | Print | Product List | Glossary On
Versions: 1 2 3 4 5 6 7 8 9 10 11 12 13 14 15 16 17 18 19 20 21 22 23 24 25 26 27 28 29 30 31 32 33 34 35 36 37 38 39 40 41 42 43 44 45 46 47 48 49 50
823
ASUS43 KMKX 191320
RWRWI

WISCONSIN REGIONAL WEATHER ROUNDUP
NATIONAL WEATHER SERVICE MILWAUKEE/SULLIVAN WI
800 AM CDT THU APR 19 2018

NOTE: "FAIR" INDICATES FEW OR NO CLOUDS BELOW 12,000 FEET WITH NO
SIGNIFICANT WEATHER AND/OR OBSTRUCTIONS TO VISIBILITY.

WIZ001-002-006>008-014>016-023>028-191400-
NORTHWEST WISCONSIN

CITY           SKY/WX    TMP DP  RH WIND       PRES   REMARKS
SUPERIOR ARPT  FAIR      31  20  62 CALM      30.41R
ASHLAND        FAIR      28  17  63 SW5       30.38R WCI  23
HAYWARD        FAIR      21  18  88 CALM      30.38R
SIREN          FAIR      29  15  54 NW3       30.41R
CUMBERLAND     FAIR      28  12  50 NW8       30.39R WCI  20
RICE LAKE      FAIR      28  15  58 W6        30.41R WCI  21
CHETEK         FAIR      29  15  57 CALM      30.39R
LADYSMITH      FAIR      28  17  63 W5        30.37R WCI  23
EAU CLAIRE     FAIR      30  17  58 NW6       30.38R WCI  24
MENOMONIE      FAIR      33  17  51 W3        30.40R
NEW RICHMOND   FAIR      27  15  59 CALM      30.41R
OSCEOLA        FAIR      24  18  78 CALM      30.45R
$$

WIZ003>005-009-010-017-018-191400-
NORTH CENTRAL WISCONSIN

CITY           SKY/WX    TMP DP  RH WIND       PRES   REMARKS
MANITOWISH WTR FAIR      29  19  64 N3        30.31R
ARBOR VITAE    FAIR      27  19  71 N9        30.30R WCI  17
WOODRUFF       FAIR      27  19  71 N9        30.30R WCI  17
RHINELANDER    FAIR      31  20  63 N6        30.30R WCI  25
EAGLE RIVER    FAIR      29  20  68 N6        30.29R WCI  23
LAND O LAKES   FAIR      32  22  66 N7        30.32R WCI  26
PHILLIPS       FAIR      26  17  70 CALM      30.32S
TOMAHAWK       FAIR      30  19  63 NW5       30.32R WCI  25
MEDFORD        FAIR      28  17  62 N6        30.30S WCI  22
MERRILL          N/A     32  19  59 N8        30.32R WCI  25
$$

WIZ029-030-035-036-043>047-191400-
CENTRAL WISCONSIN

CITY           SKY/WX    TMP DP  RH WIND       PRES   REMARKS
WAUSAU         FAIR      32  18  56 N6        30.29R WCI  26
MOSINEE        SUNNY     30  19  64 N9        30.31R WCI  22
MARSHFIELD     FAIR      30  16  56 N8        30.29R WCI  22
STEVENS POINT  FAIR      30  17  57 N8        30.31R WCI  22
WAUPACA        FAIR      35  17  48 NW7       30.30R WCI  29
WAUTOMA        FAIR      33  18  53 NW5       30.31  WCI  29
WISC RAPIDS    FAIR      30  15  53 N6        30.32R WCI  24
CAMP DOUGLAS   MOSUNNY   23  21  93 W7        30.34R WCI  15
$$

WIZ011>013-019>022-031-037>040-048>050-191400-
NORTHEAST WISCONSIN

CITY           SKY/WX    TMP DP  RH WIND       PRES   REMARKS
ANTIGO         FAIR      28  18  66 N9        30.28R WCI  19
SHAWANO        FAIR      37  19  47 NW6       30.29R WCI  32
OCONTO         FAIR      33  18  55 NW7       30.27R WCI  27
STURGEON BAY   FAIR      32  22  66 NW14      30.25R WCI  22
GREEN BAY      FAIR      34  19  54 N13       30.27R WCI  25
MANITOWOC      FAIR      33  21  61 N14       30.26R WCI  23
APPLETON       SUNNY     30  16  55 NW10      30.25R WCI  21
CLINTONVILLE   FAIR      31  17  57 NW6       30.29R WCI  25
OSHKOSH        FAIR      32  19  58 NW9       30.28R WCI  24
$$

WIZ032>034-041-042-053>061-191400-
SOUTHWEST WISCONSIN

CITY           SKY/WX    TMP DP  RH WIND       PRES   REMARKS
LA CROSSE      FAIR      28  24  85 N6        30.38R WCI  22
SPARTA         FAIR      16  15  96 CALM      30.37R
VIROQUA        FAIR      28  22  81 N3        30.33R
BOSCOBEL       FAIR      24  24 100 CALM      30.37R
PRAIRIE DU CHI FAIR      28  26  91 CALM      30.37R
PLATTEVILLE    FAIR      28  24  84 N8        30.33R WCI  20
$$

WIZ056-057-062-063-064-067-068-191400-
SOUTH CENTRAL WISCONSIN

CITY           SKY/WX    TMP DP  RH WIND       PRES   REMARKS
REEDSBURG      FAIR      26  23  89 CALM      30.34R
BARABOO/DELLS  FAIR      27  23  86 NW3       30.32R
LONE ROCK      FAIR      24  21  88 W8        30.35R WCI  15
MINERAL POINT  FAIR      32  27  80 N9        30.31R WCI  24
MADISON        FAIR      28  21  75 N9        30.30R WCI  19
MIDDLETON      FAIR      30  21  68 NW8       30.31R WCI  23
WATERTOWN      FAIR      28  21  77 NW5       30.29R WCI  22
MONROE         FAIR      32  23  69 N9        30.29R WCI  24
JANESVILLE     SUNNY     34  21  60 N8        30.28R WCI  27
$$

WIZ051-052-058>065-066-070>072-191400-
SOUTHEAST WISCONSIN

CITY           SKY/WX    TMP DP  RH WIND       PRES   REMARKS
MILWAUKEE      FAIR      35  23  61 NW12      30.25R WCI  27
WAUKESHA       SUNNY     27  21  80 NW7       30.27R WCI  19
MILWAUKEE/TIMM SUNNY     30  19  64 NW8       30.26R WCI  23
RACINE         FAIR      35  24  64 N12       30.26R WCI  27
BURLINGTON     FAIR      31  22  71 NW7       30.27R WCI  24
KENOSHA        FAIR      34  23  64 NW8       30.25R WCI  27
FOND DU LAC    FAIR      30  17  58 NW9       30.28R WCI  22
SHEBOYGAN      FAIR      32  21  64 NW9       30.25R WCI  24
WEST BEND      FAIR      30  23  74 NW8       30.26R WCI  23
JUNEAU         FAIR      26  18  72 NW5       30.29R WCI  20
$$

LSZ147-162-191400-
LAKE SUPERIOR

STATION/POSITION TIME  TEMP    WIND        PRES    WAVE
                       AIR SEA DIR/SP/G            HT/PER
                 (UTC) (F)     (DEG/KT/KT) (MB)    (FT/S)
DEVILS ISLAND    1300   36     360/  9/  9 1029.5R
SAXON HARBOR     1230   22     200/  4/  5 1027.8R
$$

LMZ867-665-643>646-191400-
LAKE MICHIGAN

STATION/POSITION TIME  TEMP    WIND        PRES    WAVE
                       AIR SEA DIR/SP/G            HT/PER
                 (UTC) (F)     (DEG/KT/KT) (MB)    (FT/S)
NORTHPORT PIER   1240   33                 1023.4R
KEWAUNEE LAKESHO 1254   34     340/  7/ 11 1023.4R
SHEBOYGAN LAKESH 1200   34     340/ 14/ 17 1024.0R
PORT WASHINGTON  1240   33     320/  7/ 10 1025.4R
MILWAUKEE LAKESH 1300   34     320/  9/ 10   N/A
KENOSHA   LAKESH 1300   35                 1024.4
$$

TC  - TEMPERATURE IN CELSIUS
VSB - VISIBILITY IN STATUTE MILES
WCI - WIND CHILL INDEX
HX  - HEAT INDEX





USA.gov is the U.S. government's official web portal to all federal, state and local government web resources and services.